When you browse on this site, cookies collect data to enhance your experience and personalize the content and advertising you see.
Visit our Privacy Policy to learn more. By continuing to use the site, you agree to this use of cookies and data.
  • In Czech Republic
  • List of Countries
  • For 7 days
  • Water Temperature
  • Satellite Maps
  • Weather Map
  • Weather Widgets
  • user-avatar
    Login

    Hourly Weather Aldaia

    Today, 17 January, Thursday

    Time Temperature Precipitation Wind Pressure Humidity
    00:00 +8°C° 0 mm 3 mps 758 mmHg 71%
    01:00 +8°C° 0 mm 3 mps 758 mmHg 69%
    02:00 +8°C° 0 mm 3 mps 758 mmHg 68%
    03:00 +8°C° 0 mm 3 mps 757 mmHg 66%
    04:00 +7°C° 0 mm 3 mps 757 mmHg 65%
    05:00 +7°C° 0 mm 3 mps 757 mmHg 64%
    06:00 +7°C° 0 mm 3 mps 758 mmHg 65%
    07:00 +8°C° 0 mm 3 mps 758 mmHg 62%
    08:00 +9°C° 0 mm 3 mps 758 mmHg 58%
    09:00 +10°C° 0 mm 3 mps 758 mmHg 54%
    10:00 +12°C° 0 mm 2 mps 758 mmHg 52%
    11:00 +14°C° 0 mm 1 mps 758 mmHg 49%
    12:00 +16°C° 0 mm 1 mps 758 mmHg 47%
    13:00 +16°C° 0 mm 1 mps 757 mmHg 47%
    14:00 +16°C° 0 mm 2 mps 757 mmHg 47%
    15:00 +16°C° 0 mm 2 mps 757 mmHg 47%
    16:00 +15°C° 0 mm 2 mps 757 mmHg 53%
    17:00 +13°C° 0 mm 1 mps 757 mmHg 60%
    18:00 +12°C° 0 mm 1 mps 758 mmHg 66%
    19:00 +10°C° 0 mm 2 mps 758 mmHg 65%
    20:00 +10°C° 0 mm 2 mps 758 mmHg 63%
    21:00 +9°C° 0 mm 2 mps 759 mmHg 61%
    22:00 +9°C° 0 mm 3 mps 759 mmHg 60%
    23:00 +8°C° 0 mm 3 mps 759 mmHg 58%

    Tomorrow, 18 January, Friday

    Time Temperature Precipitation Wind Pressure Humidity
    00:00 +8°C° 0 mm 3 mps 760 mmHg 56%
    01:00 +7°C° 0 mm 3 mps 759 mmHg 58%
    02:00 +5°C° 0 mm 3 mps 759 mmHg 60%
    03:00 +5°C° 0 mm 3 mps 759 mmHg 62%
    04:00 +5°C° 0 mm 3 mps 759 mmHg 63%
    05:00 +4°C° 0 mm 3 mps 759 mmHg 63%
    06:00 +4°C° 0 mm 3 mps 759 mmHg 63%
    07:00 +6°C° 0 mm 2 mps 759 mmHg 60%
    08:00 +7°C° 0 mm 2 mps 760 mmHg 56%
    09:00 +8°C° 0 mm 2 mps 760 mmHg 52%
    10:00 +9°C° 0 mm 2 mps 760 mmHg 46%
    11:00 +12°C° 0 mm 2 mps 759 mmHg 40%
    12:00 +14°C° 0 mm 2 mps 759 mmHg 33%
    13:00 +14°C° 0 mm 2 mps 759 mmHg 32%
    14:00 +15°C° 0 mm 2 mps 758 mmHg 30%
    15:00 +15°C° 0 mm 2 mps 758 mmHg 28%
    16:00 +14°C° 0 mm 2 mps 758 mmHg 32%
    17:00 +12°C° 0 mm 2 mps 758 mmHg 37%
    18:00 +9°C° 0 mm 2 mps 758 mmHg 41%
    19:00 +9°C° 0 mm 2 mps 759 mmHg 44%
    20:00 +8°C° 0 mm 3 mps 759 mmHg 47%
    21:00 +7°C° 0 mm 4 mps 759 mmHg 50%
    22:00 +6°C° 0 mm 4 mps 759 mmHg 52%
    23:00 +7°C° 0 mm 3 mps 759 mmHg 54%

    Day after tomorrow, 19 January, Saturday

    Time Temperature Precipitation Wind Pressure Humidity
    00:00 +7°C° 0 mm 3 mps 759 mmHg 56%
    01:00 +5°C° 0 mm 3 mps 759 mmHg 57%
    02:00 +5°C° 0 mm 4 mps 759 mmHg 58%
    03:00 +5°C° 0 mm 4 mps 759 mmHg 59%
    04:00 +5°C° 0 mm 4 mps 759 mmHg 61%
    05:00 +5°C° 0 mm 4 mps 758 mmHg 63%
    06:00 +5°C° 0 mm 4 mps 758 mmHg 65%
    07:00 +6°C° 0 mm 4 mps 758 mmHg 62%
    08:00 +7°C° 0 mm 5 mps 758 mmHg 59%
    09:00 +8°C° 0 mm 5 mps 758 mmHg 57%
    10:00 +10°C° 0 mm 5 mps 758 mmHg 52%
    11:00 +12°C° 0 mm 5 mps 757 mmHg 47%
    12:00 +14°C° 0 mm 6 mps 757 mmHg 42%
    13:00 +14°C° 0.1 mm 5 mps 756 mmHg 47%
    14:00 +13°C° 0.1 mm 5 mps 756 mmHg 51%
    15:00 +13°C° 0.1 mm 4 mps 755 mmHg 56%
    16:00 +12°C° 0.2 mm 4 mps 755 mmHg 62%
    17:00 +11°C° 0.2 mm 4 mps 755 mmHg 68%
    18:00 +11°C° 0.2 mm 3 mps 755 mmHg 75%
    19:00 +10°C° 0.6 mm 3 mps 755 mmHg 77%
    20:00 +10°C° 0.6 mm 3 mps 754 mmHg 80%
    21:00 +10°C° 0.6 mm 2 mps 754 mmHg 83%
    22:00 +10°C° 0.5 mm 3 mps 754 mmHg 83%
    23:00 +11°C° 0.5 mm 3 mps 753 mmHg 83%

    20 January, Sunday

    Time Temperature Precipitation Wind Pressure Humidity
    00:00 +11°C° 0.5 mm 3 mps 753 mmHg 82%
    01:00 +11°C° 0.1 mm 4 mps 753 mmHg 81%
    02:00 +11°C° 0.1 mm 4 mps 753 mmHg 81%
    03:00 +10°C° 0.1 mm 5 mps 752 mmHg 80%
    04:00 +11°C° 0.1 mm 4 mps 753 mmHg 81%
    05:00 +11°C° 0.1 mm 3 mps 753 mmHg 82%
    06:00 +10°C° 0.1 mm 2 mps 753 mmHg 83%
    07:00 +12°C° 0.2 mm 2 mps 753 mmHg 81%
    08:00 +12°C° 0.2 mm 2 mps 754 mmHg 80%
    09:00 +12°C° 0.2 mm 1 mps 755 mmHg 79%
    10:00 +13°C° 0 mm 1 mps 755 mmHg 70%
    11:00 +14°C° 0 mm 1 mps 755 mmHg 61%
    12:00 +15°C° 0 mm 1 mps 756 mmHg 52%
    13:00 +16°C° 0 mm 2 mps 756 mmHg 50%
    14:00 +16°C° 0 mm 2 mps 756 mmHg 48%
    15:00 +16°C° 0 mm 2 mps 756 mmHg 46%
    16:00 +15°C° 0 mm 2 mps 756 mmHg 51%
    17:00 +13°C° 0 mm 1 mps 757 mmHg 55%
    18:00 +12°C° 0 mm 1 mps 758 mmHg 60%
    19:00 +12°C° 0 mm 1 mps 759 mmHg 60%
    20:00 +10°C° 0 mm 2 mps 759 mmHg 60%
    21:00 +10°C° 0 mm 2 mps 760 mmHg 61%
    22:00 +9°C° 0 mm 2 mps 760 mmHg 63%
    23:00 +8°C° 0 mm 2 mps 761 mmHg 65%

    21 January, Monday

    Time Temperature Precipitation Wind Pressure Humidity
    00:00 +7°C° 0 mm 3 mps 761 mmHg 67%
    01:00 +7°C° 0 mm 3 mps 761 mmHg 68%
    02:00 +7°C° 0 mm 3 mps 761 mmHg 69%
    03:00 +5°C° 0 mm 3 mps 761 mmHg 69%
    04:00 +5°C° 0 mm 3 mps 761 mmHg 69%
    05:00 +5°C° 0 mm 3 mps 761 mmHg 70%
    06:00 +5°C° 0 mm 3 mps 761 mmHg 70%
    07:00 +7°C° 0 mm 3 mps 762 mmHg 66%
    08:00 +8°C° 0 mm 3 mps 762 mmHg 62%
    09:00 +8°C° 0 mm 4 mps 762 mmHg 59%
    10:00 +11°C° 0 mm 3 mps 762 mmHg 52%
    11:00 +12°C° 0 mm 3 mps 762 mmHg 44%
    12:00 +15°C° 0 mm 2 mps 762 mmHg 37%
    13:00 +15°C° 0 mm 2 mps 761 mmHg 36%
    14:00 +15°C° 0 mm 2 mps 761 mmHg 36%
    15:00 +16°C° 0 mm 2 mps 760 mmHg 35%
    16:00 +14°C° 0 mm 2 mps 761 mmHg 39%
    17:00 +12°C° 0 mm 3 mps 761 mmHg 43%
    18:00 +10°C° 0 mm 3 mps 761 mmHg 47%
    19:00 +9°C° 0 mm 3 mps 762 mmHg 51%
    20:00 +8°C° 0 mm 3 mps 762 mmHg 54%
    21:00 +6°C° 0 mm 4 mps 762 mmHg 58%
    22:00 +5°C° 0 mm 4 mps 762 mmHg 60%
    23:00 +5°C° 0 mm 3 mps 762 mmHg 61%

    22 January, Tuesday

    Time Temperature Precipitation Wind Pressure Humidity
    00:00 +4°C° 0 mm 3 mps 762 mmHg 63%
    01:00 +4°C° 0 mm 3 mps 761 mmHg 64%
    02:00 +3°C° 0 mm 3 mps 761 mmHg 64%
    03:00 +3°C° 0 mm 3 mps 761 mmHg 65%
    04:00 +3°C° 0 mm 3 mps 760 mmHg 64%
    05:00 +3°C° 0 mm 4 mps 759 mmHg 64%
    06:00 +3°C° 0 mm 4 mps 759 mmHg 63%
    07:00 +5°C° 0 mm 5 mps 758 mmHg 60%
    08:00 +5°C° 0 mm 6 mps 758 mmHg 57%
    09:00 +8°C° 0 mm 7 mps 757 mmHg 54%
    10:00 +9°C° 0 mm 8 mps 756 mmHg 50%
    11:00 +10°C° 0 mm 9 mps 755 mmHg 47%
    12:00 +11°C° 0 mm 10 mps 754 mmHg 43%
    13:00 +11°C° 0.1 mm 10 mps 753 mmHg 46%
    14:00 +11°C° 0.1 mm 10 mps 752 mmHg 49%
    15:00 +9°C° 0.1 mm 10 mps 751 mmHg 52%
    16:00 +10°C° 0.1 mm 9 mps 751 mmHg 55%
    17:00 +9°C° 0.1 mm 7 mps 751 mmHg 58%
    18:00 +8°C° 0.1 mm 6 mps 751 mmHg 61%
    19:00 +7°C° 0.1 mm 5 mps 751 mmHg 59%
    20:00 +7°C° 0.1 mm 5 mps 752 mmHg 56%
    21:00 +6°C° 0.1 mm 4 mps 752 mmHg 53%
    22:00 +5°C° 0 mm 5 mps 752 mmHg 53%
    23:00 +5°C° 0 mm 5 mps 752 mmHg 53%
    Show more